Погода в Ильмине

Россия / Пензенская область     53°47′14″N   45°39′26″E
темп.,
°C
ветер,
м/с
пор.,
м/с
влажн.,
%
обл.,
%
осадки,
мм/ч
давл.,
гПа
погр.,
м
19 апреля, пн
пн1900:00+6всв3775100 0.0 1021172
03:00+5всв61182100 0.0 1021420
06:00+4всв61276100 0.0 1022468
09:00+7в71168100 0.0 1022711
12:00+9в8105586 0.0 10211087
15:00+10в8105364 0.0 10211537
18:00+7в81265100 0.0 1022926
21:00+5в71372100 0.0 1023773
20 апреля, вт
вт2000:00+3в71376100 0.0 1023695
03:00+4вюв81578100 0.0 1023867
06:00+2вюв81692100 0.1 1024736
09:00+3вюв81569100 0.2 1025815
12:00+4вюв8156298 0.0 1024848
15:00+7вюв8145971 0.0 10231024
18:00+7вюв91658100 0.0 10211023
21:00+6вюв101857100 0.0 1021946
21 апреля, ср
ср2100:00+4юв102068100 0.8 1019800
03:00+2юв122389100 6.1 1016757
06:00+3юв112190100 2.1 1016835
09:00+3юв112090100 3.2 1016806
12:00+3ююв101991100 0.0 1016794
15:00+5ююв81691100 0.0 1017672
18:00+4ююв71496100 0.1 1019532
21:00+3ююв61397100 0.4 1020396
22 апреля, чт
чт2200:00+3ююв51197100 0.0 1021356
03:00+4ююв51198100 0.3 1021398
06:00+4ю41097100 0.0 1022420
09:00+8ююз578439 0.0 1023617
12:00+10ююз567681 0.1 1024970
15:00+12ю565984 0.2 10231134
18:00+11ююв477382 0.1 1024218
21:00+7ююв4108988 0.1 1025285
23 апреля, пт
пт2300:00+5ююв379551 0.1 1025169
03:00+5ююв369891 0.1 1026191
06:00+6ююв369367 0.0 1026207
09:00+10ююв457785 0.1 1025543
12:00+12ююв446431 1.9 1024948
15:00+12ююв447195 4.3 1023649
18:00+10юв477715 1.3 1022311
21:00+7юв49893 1.3 1022209